Flag for Indonesia Weather past 2 weeks in Medan, North Sumatra, Indonesia

79 °F

Passing clouds.

Feels Like: 83 °F
Forecast: 76 / 87 °F
Wind: No wind

Location: Medan / Polonia

Current Time: Nov 29, 2015 at 9:17:01 PM

Latest Report: Nov 29, 2015 at 8:00 PM

Visibility: 3 mi

Pressure: 29.86 "Hg

Humidity: 94%

Dew point: 77 °F

Location of MedanLocation

Historic Weather in Medan — Graph


Medan temperature yesterday

Maximum temperature yesterday: 86 °F (at 10:30 AM)
Minimum temperature yesterday: 75 °F (at 4:00 AM)
Average temperature yesterday: 81 °F

Past Weeks' High & Low Weather Summary

High97 °F (Nov 29, 8:00 AM)100% (Nov 15, 3:00 AM)29.92 "Hg (Nov 15, 3:00 AM)
Low72 °F (Nov 15, 6:30 AM)53% (Nov 29, 8:00 AM)29.68 "Hg (Nov 21, 3:00 PM)
Average81 °F87%29.80 "Hg
* Reported Nov 14 8:00 PM — Nov 29 8:00 PM, Medan, Weather by CustomWeather, © 2015

Note: Actual official high and low records may vary slightly from our data, if they occured in-between our weather recording intervals... More about our weather records


Medan weather history for previous 24 hours

Time TempWeatherWind HumidityBarometerVisibility
8:00 PM
Sun, Nov 29
79 °FPassing clouds.No wind94%29.86 "Hg3 mi
7:30 PM79 °FPassing clouds.No wind94%29.86 "Hg4 mi
7:00 PM81 °FPassing clouds.3 mph89%29.83 "Hg4 mi
6:30 PM82 °FPassing clouds.3 mph84%29.83 "Hg5 mi
6:00 PM82 °FScattered clouds.5 mph84%29.80 "HgN/A
5:30 PM82 °FPartly sunny.5 mph84%29.80 "HgN/A
5:00 PM82 °FPartly sunny.3 mph79%29.80 "HgN/A
4:30 PM82 °FPartly sunny.7 mph84%29.80 "HgN/A
4:00 PM82 °FPartly sunny.5 mph84%29.80 "HgN/A
3:30 PM82 °FPartly sunny.5 mph84%29.80 "Hg4 mi
3:00 PM82 °FLight rain. Partly sunny.6 mph84%29.80 "Hg4 mi
2:00 PM84 °FBroken clouds.7 mph79%29.86 "Hg4 mi
1:30 PM84 °FPartly sunny.6 mph79%29.89 "Hg4 mi
1:00 PM82 °FPartly sunny.6 mph89%29.89 "Hg4 mi
12:00 PM82 °FScattered clouds.6 mph89%29.89 "Hg3 mi
11:30 AM84 °FScattered clouds.3 mph84%29.89 "Hg4 mi
11:00 AM84 °FPartly sunny.No wind79%29.92 "Hg4 mi
10:30 AM82 °FPartly sunny.3 mph84%29.92 "Hg3 mi
10:00 AM82 °FPartly sunny.3 mph84%29.92 "Hg3 mi
9:30 AM82 °FBroken clouds.3 mph84%29.92 "Hg2 mi
9:00 AM81 °FPartly sunny.3 mph89%29.92 "Hg2 mi
8:30 AM81 °FScattered clouds.3 mph89%29.92 "Hg2 mi
8:00 AM97 °FFog.3 mph53%29.89 "Hg2 mi
7:30 AM79 °FFog.No wind94%29.86 "Hg1 mi
7:00 AM77 °FFog.No wind100%29.86 "Hg1 mi
6:30 AM77 °FFog.No wind100%29.86 "Hg1 mi
6:00 AM75 °FFog.No wind100%29.86 "Hg2 mi
5:30 AM77 °FFog.2 mph100%29.83 "Hg1 mi
5:00 AM77 °FFog.3 mph94%29.83 "Hg2 mi
4:00 AM77 °FFog.2 mph100%29.83 "Hg2 mi
3:30 AM77 °FFog.No wind100%29.83 "Hg2 mi
2:00 AM79 °FFog.2 mph94%29.89 "Hg2 mi
1:30 AM77 °FFog.No wind100%29.89 "Hg2 mi
12:30 AM79 °FFog.2 mph94%29.89 "Hg2 mi
10:30 PM
Sat, Nov 28
79 °FPassing clouds.2 mph94%29.89 "Hg3 mi
10:00 PM79 °FPassing clouds.3 mph94%29.89 "Hg5 mi
9:30 PM79 °FPassing clouds.5 mph89%29.89 "HgN/A
9:00 PM79 °FPassing clouds.3 mph94%29.89 "HgN/A
Weather by CustomWeather, © 2015

See weather overviewHow to use our weather pages